Flag Weather past 2 weeks in Moreno Valley, California, U.S.A.

Now
64 °F

Clear.


Feels Like: 64 °F
Forecast: 51 / 84 °F
Wind: 2 mph from Northwest

Location: Riverside / March Air Force Base

Current Time: Nov 26, 2014 at 7:08:46 PM

Latest Report: Nov 26, 2014 at 5:58 PM


Visibility: 10 mi

Pressure: 30.18 "Hg

Humidity: 19%

Dew point: 20 °F

Location of Moreno ValleyLocation

Historic Weather in Moreno Valley — Graph

°F

Moreno Valley temperature yesterday

Maximum temperature yesterday: 75 °F (at 1:58 PM)
Minimum temperature yesterday: 41 °F (at 4:58 AM)
Average temperature yesterday: 58 °F

Past Weeks' High & Low Weather Summary

 TemperatureHumidityPressure
High85 °F (Nov 26, 1:58 PM)100% (Nov 15, 4:58 AM)30.41 "Hg (Nov 15, 4:58 AM)
Low39 °F (Nov 19, 3:58 AM)5% (Nov 16, 1:58 PM)29.91 "Hg (Nov 11, 5:58 PM)
Average58 °F50%30.09 "Hg
* Reported Nov 11 5:58 PM — Nov 26 5:58 PM, Moreno Valley, Weather by CustomWeather, © 2014

Note: Actual official high and low records may vary slightly from our data, if they occured in-between our weather recording intervals... More about our weather records

Advertising

Moreno Valley weather history for previous 24 hours

 ConditionsComfort  
Time TempWeatherWind HumidityBarometerVisibility
5:58 PM
Nov 26
64 °FClear.2 mph19%30.18 "Hg10 mi
4:58 PM73 °FClear.2 mph13%30.17 "Hg10 mi
3:58 PM83 °FSunny.5 mph8%30.16 "Hg10 mi
2:58 PM84 °FSunny.5 mph8%30.16 "Hg10 mi
1:58 PM85 °FSunny.6 mph8%30.17 "Hg10 mi
12:58 PM85 °FSunny.9 mph8%30.18 "Hg10 mi
11:58 AM83 °FSunny.7 mph9%30.21 "Hg10 mi
10:58 AM78 °FSunny.6 mph11%30.24 "Hg10 mi
9:58 AM69 °FSunny.No wind14%30.27 "Hg10 mi
8:58 AM59 °FSunny.No wind24%30.28 "Hg10 mi
7:58 AM51 °FSunny.No wind29%30.27 "Hg10 mi
6:58 AM40 °FSunny.1 mph35%30.27 "Hg10 mi
5:58 AM39 °FClear.No wind37%30.26 "Hg10 mi
4:58 AM42 °FClear.No wind35%30.24 "Hg10 mi
3:58 AM41 °FClear.2 mph37%30.25 "Hg10 mi
2:58 AM42 °FClear.No wind32%30.26 "Hg10 mi
1:58 AM41 °FClear.No wind30%30.26 "Hg10 mi
12:58 AM43 °FClear.No wind28%30.27 "Hg10 mi
11:58 PM
Nov 25
43 °FClear.No wind27%30.29 "Hg10 mi
10:58 PM44 °FClear.No wind26%30.30 "Hg10 mi
9:58 PM47 °FClear.No wind23%30.31 "Hg10 mi
8:58 PM53 °FClear.No wind20%30.30 "Hg10 mi
7:58 PM53 °FClear.No wind19%30.30 "Hg10 mi
Weather by CustomWeather, © 2014

See weather overviewHow to use our weather pages